Regional Weather Roundup
Issued by NWS

Home | Current Version | Previous Version | Text Only | Print | Product List | Glossary On
Versions: 1 2 3 4 5 6 7 8 9 10 11 12 13 14 15 16 17 18 19 20 21 22 23 24 25 26 27 28 29 30 31 32 33 34 35 36 37 38 39 40 41 42 43 44 45 46 47 48 49 50
000
ASUS45 KPSR 172110
RWRAZ

ARIZONA HOURLY REGIONAL WEATHER ROUNDUP
NATIONAL WEATHER SERVICE PHOENIX AZ
200 PM MST WED JAN 17 2018

NOTE: FAIR INDICATES FEW OR NO CLOUDS BELOW 12,000 FEET WITH NO
SIGNIFICANT WEATHER AND/OR OBSTRUCTIONS TO VISIBILITY.

AZZ001>003-036-172200-
NORTHWEST ARIZONA

CITY           SKY/WX    TMP DP  RH WIND       PRES   REMARKS
BULLHEAD CITY  SUNNY     70  32  24 N21       30.17F
KINGMAN        SUNNY     65  32  29 N7        30.24F
$$

AZZ004>008-015-016-018-172200-
NORTH CENTRAL ARIZONA

CITY           SKY/WX    TMP DP  RH WIND       PRES   REMARKS
GRAND CANYON   SUNNY     53  21  28 NE13      30.33F
WILLIAMS       SUNNY     54  21  28 N12       30.29F
PRESCOTT       SUNNY     59  24  26 N8        30.25F
FLAGSTAFF      SUNNY     49  19  30 E8        30.31F
PAYSON         SUNNY     55  19  24 VRB6      30.24F
PAGE           SUNNY     50  19  29 NE6       30.33F
$$

AZZ009>014-017-172200-
NORTHEAST ARIZONA

CITY           SKY/WX    TMP DP  RH WIND       PRES   REMARKS
WINSLOW        SUNNY     52  19  27 NW9       30.31F
SAINT JOHNS    SUNNY     50  21  32 VRB5      30.28F
WINDOW ROCK    SUNNY     52  17  25 VRB3      30.28F
SHOW LOW       SUNNY     48  21  34 N8G16     30.31F
$$

AZZ540-542>544-546-548-172200-
GREATER PHOENIX AREA

CITY           SKY/WX    TMP DP  RH WIND       PRES   REMARKS
PHOENIX        MOSUNNY   69  24  18 E12       30.14F
BUCKEYE        SUNNY     66  23  19 SE7       30.17F
GLENDALE       MOSUNNY   70  23  17 CALM      30.17F
LUKE AFB       SUNNY     68  23  18 CALM      30.14F
DEER VALLEY    SUNNY     66  24  20 S5        30.15F
SCOTTSDALE     SUNNY     68  26  20 CALM      30.16F
MESA-FALCON    MOSUNNY   68  23  18 NE8G20    30.16F
MESA-GATEWAY   MOSUNNY   66  21  18 VRB5      30.18F
CHANDLER       SUNNY     66  21  18 NW5       30.16F
$$

AZZ539-553-172200-
SOUTHWEST MARICOPA COUNTY AND PINAL COUNTY

CITY           SKY/WX    TMP DP  RH WIND       PRES   REMARKS
CASA GRANDE    NOT AVBL
GILA BEND      MOSUNNY   69  20  15 NE7       30.14F
$$

AZZ503-504-507>509-172200-
SOUTHEAST ARIZONA

CITY           SKY/WX    TMP DP  RH WIND       PRES   REMARKS
TUCSON         SUNNY     67  20  16 E6        30.17F
DAVIS-MONTHAN  SUNNY     70  20  15 SE3       30.15F
NOGALES        SUNNY     69  19  15 VRB6      30.16F
SIERRA VISTA   SUNNY     56  17  21 CALM      30.24F
DOUGLAS        SUNNY     54  19  25 VRB6      30.24F
SAFFORD        SUNNY     51  15  23 S8G17     30.27F
$$

AZZ532-172200-
SOUTHWEST ARIZONA

CITY           SKY/WX    TMP DP  RH WIND       PRES   REMARKS
YUMA           MOSUNNY   74  28  18 NE10      30.15F
$$

CAZ041-043-047-048-061-525>527-560>570-172200-
SOUTHERN CALIFORNIA

CITY           SKY/WX    TMP DP  RH WIND       PRES   REMARKS
DOWNTOWN L.A.  MOSUNNY   77  37  23 CALM      30.11F
L.A. AIRPORT   PTSUNNY   67  58  72 W12       30.13F
SAN DIEGO      PTSUNNY   71  47  42 NW10      30.12F
BURBANK        MOSUNNY   77  37  23 CALM      30.13F
ONTARIO        MOSUNNY   77  39  25 W8        30.12F
RIVERSIDE      PTSUNNY   80  35  19 E7        30.11F
PALM SPRINGS   SUNNY     76  38  25 VRB6      30.17F
EL CENTRO NAS  MOSUNNY   76  34  21 CALM      30.17F
IMPERIAL       SUNNY     77  36  22 VRB3      30.15F
BLYTHE         SUNNY     73  36  25 N5        30.17F
NEEDLES        SUNNY     71  36  27 VRB6      30.18F
$$

NVZ020-UTZ003-172200-
SOUTHERN NEVADA-UTAH

CITY           SKY/WX    TMP DP  RH WIND       PRES   REMARKS
LAS VEGAS      MOSUNNY   65  34  31 NE5       30.24F
SALT LAKE CITY PTSUNNY   53  27  36 CALM      30.33F
$$

NMZ009-TXZ055-172200-
NEW MEXICO-WEST TEXAS

CITY           SKY/WX    TMP DP  RH WIND       PRES   REMARKS
ALBUQUERQUE    PTSUNNY   39  15  37 SW5       30.31F
EL PASO        PTSUNNY   42  17  36 NE6       30.33F
$$


........................KEY........................
SKY/WX - SKY CONDITION/WEATHER
TMP    - TEMPERATURE IN FAHRENHEIT
DP     - DEW POINT IN FAHRENHEIT
RH     - RELATIVE HUMIDITY IN PERCENT
WIND   - DIRECTION AND SPEED IN MILES PER HOUR (MPH)
VRB    - VARIABLE WIND DIRECTION
PRES   - MEAN SEA LEVEL PRESSURE IN INCHES OF MERCURY
         F - FALLING PRESSURE   R - RISING PRESSURE
         S - STEADY PRESSURE
VSB    - VISIBILITY IN MILES
HX     - HEAT INDEX IN FAHRENHEIT
WCI    - WIND CHILL INDEX IN FAHRENHEIT
TC     - TEMPERATURE IN CELSIUS WHICH IS ALSO KNOWN AS
         TEMPERATURE IN CENTIGRADE
AFB    - AIR FORCE BASE
         LUKE AFB IS LUKE AIR FORCE BASE
         DAVIS-MONTHAN IS DAVIS-MONTHAN AIR FORCE BASE
NAS    - NAVAL AIR STATION
         EL CENTRO NAS IS EL CENTRO NAVAL AIR STATION
N/A    - NOT AVAILABLE




USA.gov is the U.S. government's official web portal to all federal, state and local government web resources and services.